Regional Weather Roundup
Issued by NWS

Home | Current Version | Previous Version | Graphics & Text | Print | Product List | Glossary On
Versions: 1 2 3 4 5 6 7 8 9 10 11 12 13 14 15 16 17 18 19 20 21 22 23 24 25 26 27 28 29 30 31 32 33 34 35 36 37 38 39 40 41 42 43 44 45 46 47 48 49 50
978
ASUS43 KOAX 231510
RWRNE

WEATHER ROUNDUP FOR NEBRASKA
NATIONAL WEATHER SERVICE OMAHA NE
1000 AM CDT MON APR 23 2018

NOTES: SATELLITE DATA IS BEING USED TO AUGMENT CLOUD COVER ABOVE
       12000 FEET.
       "FAIR" INDICATES FEW OR NO CLOUDS BELOW 12,000 FEET WITH NO
       SIGNIFICANT WEATHER AND/OR OBSTRUCTIONS TO VISIBILITY.


NEZ001>004-019>022-054>056-231600-
NEBRASKA PANHANDLE

CITY           SKY/WX    TMP DP  RH WIND       PRES   REMARKS
SCOTTSBLUFF    SUNNY     48  41  76 SE9       30.10S
ALLIANCE       SUNNY     50  40  68 S13       30.11S
CHADRON        SUNNY     54  40  59 VRB6      30.08F
GORDON         FAIR      54  40  59 SW9       30.12S
KIMBALL        SUNNY     47  40  78 S8        30.11S
SIDNEY         SUNNY     51  40  65 S10       30.11F
$$

NEZ057>060-069>072-079>082-231600-
SOUTHWEST NEBRASKA

CITY           SKY/WX    TMP DP  RH WIND       PRES   REMARKS
NORTH PLATTE   SUNNY     53  41  63 CALM      30.17F
IMPERIAL       SUNNY     52  41  66 S13       30.16F
LEXINGTON      SUNNY     53  43  67 CALM      30.19S
MCCOOK         SUNNY     51  41  68 CALM      30.18F
OGALLALA       SUNNY     51  42  71 S8        30.16F
$$

NEZ005>010-023>029-035>040-094-231600-
NORTH CENTRAL NEBRASKA

CITY           SKY/WX    TMP DP  RH WIND       PRES   REMARKS
VALENTINE      SUNNY     58  41  53 S12       30.16S
AINSWORTH      SUNNY     56  42  59 S10       30.17S
BROKEN BOW     SUNNY     54  43  66 SE5       30.17F
O`NEILL        SUNNY     60  41  49 S6        30.19F
ORD            SUNNY     53  41  63 CALM      30.18F
THEDFORD       SUNNY     55  41  59 S9        30.17F
$$

NEZ041-046>049-061>064-073>077-083>087-231600-
SOUTH CENTRAL NEBRASKA

CITY           SKY/WX    TMP DP  RH WIND       PRES   REMARKS
GRAND ISLAND   SUNNY     56  37  49 SE5       30.19F
AURORA         SUNNY     56  38  50 S5        30.19S
HASTINGS       SUNNY     56  38  50 NE3       30.19F
HEBRON         SUNNY     58  36  43 CALM      30.17F
HOLDREGE       SUNNY     56  41  56 E6        30.18F
KEARNEY        SUNNY     57  39  51 E5        30.19F
YORK             N/A     61  39  44 CALM      30.19S
$$

NEZ011>018-030>034-042>045-231600-
NORTHEAST NEBRASKA

CITY           SKY/WX    TMP DP  RH WIND       PRES   REMARKS
NORFOLK        SUNNY     54  36  50 SE5       30.19F
ALBION         SUNNY     57  33  40 CALM      30.19S
BLAIR          SUNNY     58  33  38 NE6       30.19F
COLUMBUS       SUNNY     57  36  45 CALM      30.20
FREMONT        SUNNY     58  33  38 CALM      30.20S
TEKAMAH        SUNNY     57  34  41 E3        30.20F
WAYNE          SUNNY     56  38  49 SE5       30.20F
$$

NEZ050>053-065>068-078-088>093-231600-
SOUTHEAST NEBRASKA

CITY           SKY/WX    TMP DP  RH WIND       PRES   REMARKS
LINCOLN        SUNNY     59  31  34 VRB5      30.20S
OMAHA EPPLEY   MOSUNNY   59  33  37 N3        30.19F
BEATRICE       SUNNY     61  35  37 E5        30.17F
FALLS CITY     CLOUDY    57  33  40 NE7       30.16F
NEBRASKA CITY  SUNNY     58  34  40 NE7       30.18S
PLATTSMOUTH    SUNNY     58  32  37 NE6       30.18F
$$

NEZ044-045-051>053-067-231600-
OMAHA AREA

CITY           SKY/WX    TMP DP  RH WIND       PRES   REMARKS
OMAHA EPPLEY   MOSUNNY   59  33  37 N3        30.19F
BLAIR          SUNNY     58  33  38 NE6       30.19F
FREMONT        SUNNY     58  33  38 CALM      30.20S
MILLARD        SUNNY     60  33  36 CALM      30.19F
OFFUTT AFB     SUNNY     58  34  40 NE5       30.18F
PLATTSMOUTH    SUNNY     58  32  37 NE6       30.18F
WAHOO          FAIR      60  26  26 CALM      30.19F
$$




USA.gov is the U.S. government's official web portal to all federal, state and local government web resources and services.